TimeCEST,TemperatureF,Dew PointF,Humidity,Sea Level PressureIn,VisibilityMPH,Wind Direction,Wind SpeedMPH,Gust SpeedMPH,PrecipitationIn,Events,Conditions,WindDirDegrees,DateUTC
12:00 AM,50.0,42.8,76,30.24,-9999.0,SW,3.5,-,N/A,,Clear,220,2013-08-14 22:00:00
12:30 AM,50.0,44.6,82,30.24,-9999.0,WSW,5.8,-,N/A,,Clear,240,2013-08-14 22:30:00
1:00 AM,48.2,42.8,82,30.24,-9999.0,West,6.9,-,N/A,,Clear,260,2013-08-14 23:00:00
1:30 AM,48.2,42.8,82,30.24,-9999.0,West,5.8,-,N/A,,Clear,260,2013-08-14 23:30:00
2:00 AM,48,43,76,30.27,31,SW,6.7,,,,Scattered Clouds,220,2013-08-15 00:00:00
2:00 AM,48.2,42.8,82,30.24,-9999.0,SW,6.9,-,N/A,,Clear,230,2013-08-15 00:00:00
2:30 AM,46.4,42.8,87,30.24,-9999.0,WSW,6.9,-,N/A,,Clear,250,2013-08-15 00:30:00
3:00 AM,46.4,41.0,81,30.24,-9999.0,WSW,5.8,-,N/A,,Clear,240,2013-08-15 01:00:00
3:30 AM,46.4,41.0,81,30.24,-9999.0,West,8.1,-,N/A,,Clear,260,2013-08-15 01:30:00
4:00 AM,46.4,41.0,81,30.24,-9999.0,West,8.1,-,N/A,,Clear,260,2013-08-15 02:00:00
4:30 AM,46.4,41.0,81,30.24,-9999.0,WSW,5.8,-,N/A,,Clear,250,2013-08-15 02:30:00
5:00 AM,46.4,41.0,81,30.24,-9999.0,West,8.1,-,N/A,,Clear,260,2013-08-15 03:00:00
5:30 AM,48.2,42.8,82,30.24,-9999.0,West,6.9,-,N/A,,Clear,260,2013-08-15 03:30:00
6:00 AM,46.4,41.0,81,30.24,-9999.0,WSW,3.5,-,N/A,,Clear,240,2013-08-15 04:00:00
6:30 AM,46.4,42.8,87,30.27,-9999.0,SW,4.6,-,N/A,,Clear,220,2013-08-15 04:30:00
7:00 AM,48.2,44.6,87,30.27,-9999.0,SSW,5.8,-,N/A,,Clear,210,2013-08-15 05:00:00
7:30 AM,51.8,46.4,82,30.27,-9999.0,SW,5.8,-,N/A,,Clear,230,2013-08-15 05:30:00
8:00 AM,55,47,68,30.29,47,SSW,4.5,,,,Scattered Clouds,200,2013-08-15 06:00:00
8:00 AM,55.4,46.4,72,30.27,-9999.0,South,3.5,-,N/A,,Clear,190,2013-08-15 06:00:00
8:30 AM,57.2,48.2,72,30.27,-9999.0,Variable,2.3,-,N/A,,Clear,0,2013-08-15 06:30:00
9:00 AM,60.8,46.4,59,30.30,-9999.0,Variable,1.2,-,N/A,,Clear,0,2013-08-15 07:00:00
9:30 AM,62.6,46.4,55,30.27,-9999.0,Variable,1.2,-,N/A,,Clear,0,2013-08-15 07:30:00
10:00 AM,62.6,44.6,52,30.30,6.2,Variable,2.3,-,N/A,,Partly Cloudy,0,2013-08-15 08:00:00
10:30 AM,64.4,44.6,49,30.27,-9999.0,Variable,2.3,-,N/A,,Clear,0,2013-08-15 08:30:00
11:00 AM,64.4,44.6,49,30.27,-9999.0,North,3.5,-,N/A,,Clear,350,2013-08-15 09:00:00
11:30 AM,66.2,44.6,46,30.27,-9999.0,East,3.5,-,N/A,,Clear,80,2013-08-15 09:30:00
12:00 PM,64.4,42.8,45,30.27,-9999.0,West,3.5,-,N/A,,Clear,260,2013-08-15 10:00:00
12:15 PM,68.0,41.0,37,30.27,-9999.0,Variable,3.5,-,N/A,,Clear,0,2013-08-15 10:15:00
12:30 PM,68.0,37.4,33,30.27,-9999.0,SSE,5.8,-,N/A,,Clear,160,2013-08-15 10:30:00
1:00 PM,68.0,44.6,43,30.27,-9999.0,South,3.5,-,N/A,,Clear,170,2013-08-15 11:00:00
1:30 PM,68.0,42.8,40,30.24,-9999.0,NW,6.9,-,N/A,,Clear,310,2013-08-15 11:30:00
2:00 PM,70,41,24,30.23,44,WNW,4.5,,,,Scattered Clouds,300,2013-08-15 12:00:00
2:00 PM,69.8,39.2,33,30.24,-9999.0,WNW,5.8,-,N/A,,Clear,290,2013-08-15 12:00:00
2:30 PM,69.8,39.2,33,30.24,-9999.0,Variable,4.6,-,N/A,,Clear,0,2013-08-15 12:30:00
3:00 PM,71.6,39.2,31,30.24,-9999.0,NW,5.8,-,N/A,,Clear,320,2013-08-15 13:00:00
3:30 PM,69.8,37.4,31,30.21,-9999.0,WSW,5.8,-,N/A,,Clear,250,2013-08-15 13:30:00
4:00 PM,69.8,35.6,28,30.21,-9999.0,Variable,2.3,-,N/A,,Clear,0,2013-08-15 14:00:00
4:30 PM,69.8,37.4,31,30.21,-9999.0,SSE,4.6,-,N/A,,Clear,160,2013-08-15 14:30:00
5:00 PM,69.8,37.4,31,30.21,-9999.0,SE,4.6,-,N/A,,Clear,130,2013-08-15 15:00:00
5:30 PM,69.8,41.0,35,30.21,-9999.0,North,4.6,-,N/A,,Clear,350,2013-08-15 15:30:00
6:00 PM,69.8,39.2,33,30.21,-9999.0,Variable,2.3,-,N/A,,Clear,0,2013-08-15 16:00:00
6:30 PM,69.8,39.2,33,30.21,-9999.0,ENE,4.6,-,N/A,,Clear,70,2013-08-15 16:30:00
7:00 PM,66.2,41.0,40,30.21,-9999.0,ENE,4.6,-,N/A,,Clear,60,2013-08-15 17:00:00
7:30 PM,64.4,41.0,42,30.21,-9999.0,East,4.6,-,N/A,,Clear,100,2013-08-15 17:30:00
8:00 PM,64,43,35,30.20,37,East,4.5,,,,Clear,80,2013-08-15 18:00:00
8:00 PM,64.4,42.8,45,30.21,-9999.0,East,4.6,-,N/A,,Clear,80,2013-08-15 18:00:00
8:30 PM,62.6,41.0,45,30.21,-9999.0,East,4.6,-,N/A,,Clear,90,2013-08-15 18:30:00
9:00 PM,60.8,42.8,52,30.21,-9999.0,East,5.8,-,N/A,,Clear,90,2013-08-15 19:00:00
9:30 PM,60.8,42.8,52,30.21,-9999.0,ESE,5.8,-,N/A,,Clear,110,2013-08-15 19:30:00
10:00 PM,60.8,41.0,48,30.21,-9999.0,SE,5.8,-,N/A,,Clear,130,2013-08-15 20:00:00
10:30 PM,60.8,41.0,48,30.21,-9999.0,SE,6.9,-,N/A,,Clear,140,2013-08-15 20:30:00
11:00 PM,59.0,41.0,51,30.21,-9999.0,SE,5.8,-,N/A,,Clear,140,2013-08-15 21:00:00
11:30 PM,59.0,41.0,51,30.21,-9999.0,SSE,8.1,-,N/A,,Clear,150,2013-08-15 21:30:00